Date,TemperatureHighF,TemperatureAvgF,TemperatureLowF,DewpointHighF,DewpointAvgF,DewpointLowF,HumidityHigh,HumidityAvg,HumidityLow,PressureMaxIn,PressureMinIn,WindSpeedMaxMPH,WindSpeedAvgMPH,GustSpeedMaxMPH,PrecipitationSumIn
2013-1-1,75.6,71.5,71.4,64.3,59.5,59.4,68,66,66,30.30,30.30,13,13,13,0.00
2013-1-2,75.0,71.2,68.4,68.5,66.9,59.4,95,87,66,30.30,30.01,13,3,13,0.00
2013-1-3,84.2,72.7,65.5,70.5,67.7,65.2,99,86,58,30.14,30.03,17,4,17,0.08
2013-1-4,88.3,72.2,63.1,72.6,68.5,57.5,99,89,56,30.20,30.11,11,3,11,0.00
2013-1-5,73.4,72.0,64.2,70.0,69.2,63.9,99,91,89,30.22,30.18,5,2,5,0.13
2013-1-6,82.6,73.1,63.7,72.7,69.8,63.4,99,90,70,30.20,30.06,17,5,17,0.00
2013-1-7,77.4,70.5,66.4,72.3,68.7,66.1,99,94,75,30.17,30.07,14,4,14,0.20
2013-1-8,83.5,76.6,70.9,74.2,72.3,69.7,99,87,74,30.20,30.07,16,8,16,0.17
2013-1-9,82.2,77.8,75.2,73.2,72.0,70.4,91,83,75,30.27,30.16,21,11,21,0.00
2013-1-11,77.2,77.2,77.2,71.6,71.6,71.6,83,83,83,30.23,30.23,5,5,11,0.00
2013-1-12,80.8,75.7,72.5,69.8,67.1,63.8,79,75,69,30.23,30.09,16,7,16,0.00
2013-1-13,82.4,75.5,72.9,68.8,66.4,63.9,84,74,62,30.13,30.08,20,9,20,0.00
2013-1-14,74.3,74.3,74.3,65.5,65.5,65.5,74,74,74,30.12,30.12,5,5,5,0.00
2013-1-15,74.3,74.3,74.3,65.5,65.5,65.5,74,74,74,30.12,30.12,5,5,5,0.00
2013-1-16,81.9,77.0,69.4,71.0,69.2,65.5,98,77,65,30.12,30.00,16,8,16,0.16
2013-1-17,82.4,70.6,59.9,74.1,67.3,54.4,99,90,70,30.09,29.97,23,5,23,0.35
2013-1-18,72.3,63.3,51.8,61.5,53.8,30.3,86,72,56,30.23,30.08,17,9,17,0.00
2013-1-19,72.7,68.3,63.5,69.6,64.6,58.4,99,89,66,30.22,30.09,14,4,14,0.33
2013-1-20,83.7,70.3,62.2,70.6,66.8,61.9,99,90,60,30.15,30.01,15,4,15,0.22
2013-1-21,80.4,71.3,64.2,73.3,68.2,63.9,99,91,73,30.07,29.95,14,4,14,0.06
2013-1-22,75.2,68.4,61.9,65.2,61.9,60.1,99,81,63,30.12,30.00,17,7,17,0.00
2013-1-30,74.8,74.8,74.8,61.4,61.4,61.4,63,63,63,30.10,30.10,6,6,6,0.00
2013-1-31,74.8,62.2,58.3,70.9,46.2,39.7,99,57,48,30.18,30.10,13,7,13,0.00